When you browse on this site, cookies collect data to enhance your experience and personalize the content and advertising you see.
Visit our Privacy Policy to learn more. By continuing to use the site, you agree to this use of cookies and data.
  • In Schweiz
  • Länderverzeichnis
  • Für 7 Tage
  • Wassertemperatur
  • Satellitenkarten
  • Wetterkarte
  • Widgets
  • user-avatar
    Anmelden

    Stündliche Wetter Borisovskie Vyselki

    Heute, 24 Juni, Montag

    Zeit Temperatur Niederschläge Wind Luftdruck Luftfeuchtigkeit
    00:00 +21°C° 1.2 mm 1 m/S 745 mmHg 94%
    01:00 +20°C° 0.2 mm 2 m/S 745 mmHg 94%
    02:00 +20°C° 0.2 mm 2 m/S 745 mmHg 95%
    03:00 +19°C° 0 mm 4 m/S 745 mmHg 98%
    04:00 +19°C° 0.6 mm 4 m/S 745 mmHg 97%
    05:00 +18°C° 0.6 mm 4 m/S 745 mmHg 97%
    06:00 +17°C° 0.6 mm 4 m/S 745 mmHg 96%
    07:00 +18°C° 0.2 mm 4 m/S 745 mmHg 94%
    08:00 +19°C° 0.2 mm 4 m/S 745 mmHg 93%
    09:00 +19°C° 0 mm 4 m/S 746 mmHg 90%
    10:00 +20°C° 0 mm 4 m/S 746 mmHg 86%
    11:00 +21°C° 0 mm 5 m/S 746 mmHg 82%
    12:00 +22°C° 0 mm 5 m/S 746 mmHg 78%
    13:00 +23°C° 0 mm 5 m/S 746 mmHg 75%
    14:00 +23°C° 0 mm 5 m/S 746 mmHg 71%
    15:00 +23°C° 0 mm 5 m/S 746 mmHg 67%
    16:00 +23°C° 0 mm 5 m/S 746 mmHg 69%
    17:00 +23°C° 0 mm 4 m/S 746 mmHg 71%
    18:00 +22°C° 0 mm 4 m/S 746 mmHg 73%
    19:00 +21°C° 0 mm 4 m/S 746 mmHg 76%
    20:00 +20°C° 0 mm 3 m/S 747 mmHg 80%
    21:00 +18°C° 0 mm 3 m/S 747 mmHg 83%
    22:00 +18°C° 0 mm 3 m/S 747 mmHg 80%
    23:00 +17°C° 0 mm 3 m/S 747 mmHg 78%

    Morgen, 25 Juni, Dienstag

    Zeit Temperatur Niederschläge Wind Luftdruck Luftfeuchtigkeit
    00:00 +16°C° 0 mm 3 m/S 747 mmHg 75%
    01:00 +16°C° 0 mm 3 m/S 748 mmHg 72%
    02:00 +14°C° 0 mm 3 m/S 748 mmHg 69%
    03:00 +14°C° 0 mm 2 m/S 749 mmHg 66%
    04:00 +13°C° 0 mm 3 m/S 749 mmHg 69%
    05:00 +13°C° 0 mm 3 m/S 749 mmHg 72%
    06:00 +13°C° 0 mm 3 m/S 749 mmHg 75%
    07:00 +16°C° 0 mm 3 m/S 749 mmHg 73%
    08:00 +17°C° 0 mm 4 m/S 750 mmHg 70%
    09:00 +19°C° 0 mm 4 m/S 750 mmHg 68%
    10:00 +20°C° 0 mm 4 m/S 750 mmHg 64%
    11:00 +20°C° 0 mm 4 m/S 750 mmHg 60%
    12:00 +21°C° 0 mm 5 m/S 750 mmHg 56%
    13:00 +21°C° 0 mm 4 m/S 750 mmHg 56%
    14:00 +21°C° 0 mm 4 m/S 750 mmHg 56%
    15:00 +22°C° 0 mm 4 m/S 750 mmHg 56%
    16:00 +21°C° 0 mm 4 m/S 750 mmHg 59%
    17:00 +21°C° 0 mm 4 m/S 750 mmHg 63%
    18:00 +20°C° 0 mm 4 m/S 750 mmHg 66%
    19:00 +19°C° 0 mm 3 m/S 750 mmHg 68%
    20:00 +17°C° 0 mm 3 m/S 750 mmHg 70%
    21:00 +16°C° 0 mm 2 m/S 750 mmHg 72%
    22:00 +15°C° 0 mm 2 m/S 750 mmHg 72%
    23:00 +14°C° 0 mm 2 m/S 750 mmHg 72%

    übermorgen, 26 Juni, Mittwoch

    Zeit Temperatur Niederschläge Wind Luftdruck Luftfeuchtigkeit
    00:00 +14°C° 0 mm 2 m/S 750 mmHg 72%
    01:00 +13°C° 0 mm 2 m/S 750 mmHg 72%
    02:00 +13°C° 0 mm 2 m/S 750 mmHg 73%
    03:00 +13°C° 0 mm 2 m/S 751 mmHg 73%
    04:00 +13°C° 0 mm 2 m/S 750 mmHg 75%
    05:00 +13°C° 0 mm 2 m/S 750 mmHg 77%
    06:00 +14°C° 0 mm 2 m/S 750 mmHg 78%
    07:00 +15°C° 0 mm 2 m/S 750 mmHg 74%
    08:00 +17°C° 0 mm 2 m/S 750 mmHg 69%
    09:00 +18°C° 0 mm 2 m/S 750 mmHg 64%
    10:00 +19°C° 0 mm 2 m/S 750 mmHg 61%
    11:00 +20°C° 0 mm 2 m/S 749 mmHg 57%
    12:00 +21°C° 0 mm 2 m/S 749 mmHg 54%
    13:00 +21°C° 0 mm 3 m/S 749 mmHg 55%
    14:00 +22°C° 0 mm 3 m/S 748 mmHg 56%
    15:00 +22°C° 0 mm 3 m/S 748 mmHg 56%
    16:00 +21°C° 0.3 mm 3 m/S 747 mmHg 62%
    17:00 +21°C° 0.3 mm 3 m/S 747 mmHg 67%
    18:00 +21°C° 0.3 mm 3 m/S 746 mmHg 73%
    19:00 +19°C° 0.3 mm 3 m/S 746 mmHg 76%
    20:00 +18°C° 0.3 mm 3 m/S 745 mmHg 80%
    21:00 +17°C° 0.3 mm 2 m/S 745 mmHg 83%
    22:00 +16°C° 0 mm 2 m/S 744 mmHg 86%
    23:00 +16°C° 0 mm 1 m/S 744 mmHg 88%

    27 Juni, Donnerstag

    Zeit Temperatur Niederschläge Wind Luftdruck Luftfeuchtigkeit
    00:00 +14°C° 0 mm 0 m/S 744 mmHg 90%
    01:00 +15°C° 0 mm 1 m/S 743 mmHg 91%
    02:00 +15°C° 0 mm 1 m/S 743 mmHg 92%
    03:00 +14°C° 0 mm 1 m/S 742 mmHg 93%
    04:00 +14°C° 0.1 mm 1 m/S 742 mmHg 93%
    05:00 +15°C° 0.1 mm 1 m/S 742 mmHg 93%
    06:00 +15°C° 0.1 mm 1 m/S 741 mmHg 92%
    07:00 +15°C° 0.3 mm 1 m/S 741 mmHg 93%
    08:00 +15°C° 0.3 mm 1 m/S 740 mmHg 94%
    09:00 +15°C° 0.3 mm 2 m/S 740 mmHg 94%
    10:00 +14°C° 0.4 mm 3 m/S 739 mmHg 93%
    11:00 +15°C° 0.4 mm 4 m/S 739 mmHg 91%
    12:00 +17°C° 0.4 mm 4 m/S 738 mmHg 89%
    13:00 +16°C° 0.6 mm 5 m/S 737 mmHg 91%
    14:00 +16°C° 0.6 mm 5 m/S 736 mmHg 92%
    15:00 +16°C° 0.6 mm 5 m/S 735 mmHg 93%
    16:00 +16°C° 1.4 mm 5 m/S 734 mmHg 93%
    17:00 +17°C° 1.4 mm 5 m/S 734 mmHg 93%
    18:00 +17°C° 1.4 mm 5 m/S 733 mmHg 92%
    19:00 +17°C° 1.1 mm 5 m/S 732 mmHg 92%
    20:00 +17°C° 1.1 mm 5 m/S 731 mmHg 92%
    21:00 +17°C° 1.1 mm 6 m/S 730 mmHg 92%
    22:00 +17°C° 3.3 mm 7 m/S 729 mmHg 93%
    23:00 +16°C° 3.3 mm 7 m/S 728 mmHg 94%

    28 Juni, Freitag

    Zeit Temperatur Niederschläge Wind Luftdruck Luftfeuchtigkeit
    00:00 +16°C° 3.3 mm 8 m/S 727 mmHg 95%
    01:00 +16°C° 1 mm 7 m/S 727 mmHg 95%
    02:00 +16°C° 1 mm 7 m/S 726 mmHg 96%
    03:00 +16°C° 1 mm 6 m/S 726 mmHg 96%
    04:00 +15°C° 0.4 mm 6 m/S 726 mmHg 95%
    05:00 +15°C° 0.4 mm 5 m/S 725 mmHg 95%
    06:00 +14°C° 0.4 mm 5 m/S 725 mmHg 94%
    07:00 +14°C° 0 mm 5 m/S 725 mmHg 92%
    08:00 +14°C° 0 mm 5 m/S 725 mmHg 91%
    09:00 +14°C° 0 mm 5 m/S 725 mmHg 90%
    10:00 +14°C° 0.1 mm 6 m/S 725 mmHg 87%
    11:00 +15°C° 0.1 mm 6 m/S 725 mmHg 84%
    12:00 +16°C° 0.1 mm 6 m/S 725 mmHg 81%
    13:00 +15°C° 0.3 mm 7 m/S 724 mmHg 82%
    14:00 +15°C° 0.3 mm 8 m/S 724 mmHg 84%
    15:00 +13°C° 0.3 mm 8 m/S 724 mmHg 85%
    16:00 +12°C° 0.3 mm 8 m/S 723 mmHg 87%
    17:00 +12°C° 0.3 mm 7 m/S 723 mmHg 90%
    18:00 +11°C° 0.3 mm 7 m/S 723 mmHg 92%
    19:00 +11°C° 0.4 mm 7 m/S 723 mmHg 93%
    20:00 +10°C° 0.4 mm 7 m/S 723 mmHg 93%
    21:00 +10°C° 0.4 mm 8 m/S 723 mmHg 93%
    22:00 +10°C° 0.3 mm 7 m/S 722 mmHg 94%
    23:00 +10°C° 0.3 mm 7 m/S 722 mmHg 94%

    29 Juni, Samstag

    Zeit Temperatur Niederschläge Wind Luftdruck Luftfeuchtigkeit
    00:00 +10°C° 0.3 mm 7 m/S 722 mmHg 95%
    01:00 +10°C° 0.3 mm 7 m/S 722 mmHg 95%
    02:00 +10°C° 0.3 mm 7 m/S 721 mmHg 95%
    03:00 +10°C° 0.3 mm 7 m/S 721 mmHg 94%
    04:00 +10°C° 0.4 mm 7 m/S 721 mmHg 94%
    05:00 +10°C° 0.4 mm 7 m/S 721 mmHg 94%
    06:00 +10°C° 0.4 mm 7 m/S 721 mmHg 94%
    07:00 +10°C° 0.1 mm 7 m/S 721 mmHg 93%
    08:00 +10°C° 0.1 mm 7 m/S 722 mmHg 93%
    09:00 +10°C° 0.1 mm 8 m/S 722 mmHg 92%
    10:00 +10°C° 0.1 mm 8 m/S 722 mmHg 92%
    11:00 +10°C° 0.1 mm 8 m/S 723 mmHg 91%
    12:00 +10°C° 0.1 mm 8 m/S 723 mmHg 91%
    13:00 +10°C° 0.1 mm 7 m/S 723 mmHg 90%
    14:00 +10°C° 0.1 mm 7 m/S 724 mmHg 90%
    15:00 +10°C° 0.1 mm 7 m/S 724 mmHg 89%
    16:00 +10°C° 0 mm 7 m/S 724 mmHg 89%
    17:00 +10°C° 0 mm 7 m/S 724 mmHg 88%
    18:00 +10°C° 0 mm 6 m/S 725 mmHg 88%
    19:00 +9°C° 0.2 mm 6 m/S 725 mmHg 89%
    20:00 +9°C° 0.2 mm 6 m/S 725 mmHg 91%
    21:00 +8°C° 0.2 mm 6 m/S 725 mmHg 92%
    22:00 +8°C° 0.5 mm 5 m/S 725 mmHg 93%
    23:00 +8°C° 0.5 mm 5 m/S 725 mmHg 94%
    Mehr zeigen